O3B MPOWER F9

Last updated on Wed Jun 24 2026 00:03:26 GMT+0000 (Coordinated Universal Time)

1 64866U 25153A 26173.77280650 -.00000022 00000+0 00000+0 0 9993 2 64866 0.0591 9.0736 0006452 103.2373 247.7560 5.00115778 19834
UTC large
Height (km)
Speed (km/s)
/
Latitude / Longitude
Inclination (degrees)
Orbital Period (minutes)
Azimuth
Elevation
Range (km)
Doppler Factor

Next 0 passes for location: London (51.5072 / 0.1276)

No passes found over London.
O3B MPOWER F9